Location: Unspecified
(52.0000°N, 4.4000°E)
Time: 00:20:53
(UTC+00:00)

Meteor 1-25 Rocket - Pass Details

Date: 14 May 2025
Orbit: 835 x 891 km, 81.2° (Epoch: 23 June)

Event Time Altitude Azimuth Distance (km) Brightness Sun altitude
Rises 20:20:45 0° 348° (NNW) 3,419 8.4 -7.1°
Reaches altitude 10° 20:23:12 10° 351° (N) 2,473 7.5 -7.4°
Maximum altitude 20:28:47 68° 74° (ENE) 906 4.3 -8.0°
Drops below altitude 10° 20:34:17 10° 158° (SSE) 2,442 6.0 -8.6°
Enters shadow 20:34:38 - 158° (SSE) 2,574 6.1 -8.6°
